World > North America > United States > New York
Hourly Weather in Peconic, New YorkPeconic, New York Hourly Weather

Peconic, NY Hourly Weather

Hourly Weather Peconic, New YorkHourly Weather in Peconic, NY
Lat: 41.04N, Lon: 72.46W  ICAO: KFOK
Web Search
Peconic Weather Warning NWS WEATHER ALERT FOR THE PECONIC, NY AREA - Issued: 411 AM EDT Tue Sep 28 2021 Peconic Weather Warning  

Did you know? You can add this page to Bookmarks by pressing the Ctrl key & d key at the same time. Mac users press command & d.

Feedback

Peconic Hourly Weather

36 Hour Weather Scroll   °F Click to change Peconic hourly weather to Imperial units.Click to change Peconic hourly weather to Metric units. °C
Currently, Clear, temperature is 68°F20°C, dew point 61°F16°C, humidity 80%. Wind direction is SW at 9 mph14 km/h with visibility of 10.00 mi16 km. Barometric pressure is 29 in982 mb.

Sep 28
6:00 AM

Sep 28
7:00 AM

Sep 28
8:00 AM

Sep 28
9:00 AM

Sep 28
10:00 AM

Sep 28
11:00 AM

Sep 28
NOON

Sep 28
1:00 PM

Sep 28
2:00 PM

Sep 28
3:00 PM

Sep 28
4:00 PM

Sep 28
5:00 PM

Sep 28
6:00 PM

Sep 28
7:00 PM

Sep 28
8:00 PM

Sep 28
9:00 PM

Sep 28
10:00 PM

Sep 28
11:00 PM

Sep 29
MIDNIGHT

Sep 29
1:00 AM

Sep 29
2:00 AM

Sep 29
3:00 AM

Sep 29
4:00 AM

Sep 29
5:00 AM

Sep 29
6:00 AM

Sep 29
7:00 AM

Sep 29
8:00 AM

Sep 29
9:00 AM

Sep 29
10:00 AM

Sep 29
11:00 AM

Sep 29
NOON

Sep 29
1:00 PM

Sep 29
2:00 PM

Sep 29
3:00 PM

Sep 29
4:00 PM

Sep 29
5:00 PM
Mostly Cloudy Mostly Cloudy Mostly Cloudy Mostly Cloudy Cloudy Cloudy Cloudy Cloudy Cloudy Cloudy Cloudy Cloudy Cloudy Cloudy Cloudy Cloudy Cloudy Cloudy Cloudy Mostly Cloudy Mostly Cloudy Mostly Cloudy Partly Cloudy Partly Cloudy Partly Cloudy Partly Cloudy Partly Cloudy Partly Cloudy Clear Clear Clear Clear Clear Clear Partly Cloudy Partly Cloudy
Mostly Cloudy Mostly Cloudy Mostly Cloudy Mostly Cloudy Cloudy Cloudy Cloudy Cloudy Cloudy Cloudy Cloudy Cloudy Cloudy Cloudy Cloudy Cloudy Cloudy Cloudy Cloudy Mostly Cloudy Mostly Cloudy Mostly Cloudy Partly Cloudy Partly Cloudy Partly Cloudy Partly Cloudy Partly Cloudy Partly Cloudy Clear Clear Clear Clear Clear Clear Partly Cloudy Partly Cloudy
66°F19°C 66°F19°C 66°F19°C 67°F19°C 68°F20°C 69°F21°C 70°F21°C 70°F21°C 71°F22°C 71°F22°C 70°F21°C 70°F21°C 68°F20°C 67°F19°C 65°F18°C 64°F18°C 63°F17°C 62°F17°C 61°F16°C 59°F15°C 58°F14°C 57°F14°C 56°F13°C 55°F13°C 56°F13°C 56°F13°C 57°F14°C 60°F16°C 62°F17°C 65°F18°C 66°F19°C 67°F19°C 68°F20°C 68°F20°C 67°F19°C 67°F19°C
Rain Rain Rain Rain Rain Rain Rain Rain Rain Rain Rain Rain Rain Rain Rain Rain Rain Rain Rain Rain Rain - - - - - - - - - - - - - - -
34% 34% 34% 28% 28% 28% 28% 28% 28% 47% 47% 47% 47% 47% 47% 31% 31% 31% 31% 31% 31% 8% 8% 8% 8% 8% 8% 2% 2% 2% 2% 2% 2% 1% 1% 1%
60°F16°C 61°F16°C 61°F16°C 61°F16°C 62°F17°C 62°F17°C 62°F17°C 62°F17°C 62°F17°C 62°F17°C 61°F16°C 61°F16°C 61°F16°C 60°F16°C 60°F16°C 59°F15°C 57°F14°C 56°F13°C 54°F12°C 53°F12°C 51°F11°C 50°F10°C 49°F9°C 48°F9°C 48°F9°C 47°F8°C 47°F8°C 46°F8°C 45°F7°C 44°F7°C 43°F6°C 43°F6°C 42°F6°C 42°F6°C 42°F6°C 42°F6°C
81% 84% 84% 81% 81% 78% 76% 76% 73% 73% 73% 73% 78% 78% 84% 84% 81% 81% 78% 80% 77% 77% 77% 77% 74% 72% 69% 60% 54% 47% 43% 42% 39% 39% 40% 40%
SW SW SSW SSW SSW SSW SSW SSW SSW SSW W W WNW NW NNW N N N N N N N N N N N N N N N N N NNW NNW NNW NNW
10 mph 10 mph 10 mph 10 mph 13 mph 13 mph 13 mph 9 mph 9 mph 9 mph 8 mph 8 mph 8 mph 5 mph 5 mph 5 mph 6 mph 6 mph 6 mph 8 mph 8 mph 8 mph 8 mph 8 mph 8 mph 10 mph 10 mph 10 mph 13 mph 13 mph 13 mph 12 mph 12 mph 12 mph 11 mph 11 mph
10 mi16 km 10 mi16 km 10 mi16 km 10 mi16 km 10 mi16 km 10 mi16 km 10 mi16 km 10 mi16 km 10 mi16 km 10 mi16 km 10 mi16 km 10 mi16 km 10 mi16 km 10 mi16 km 10 mi16 km 10 mi16 km 10 mi16 km 10 mi16 km 10 mi16 km 10 mi16 km 10 mi16 km 10 mi16 km 10 mi16 km 10 mi16 km 10 mi16 km 10 mi16 km 10 mi16 km 10 mi16 km 10 mi16 km 10 mi16 km 10 mi16 km 10 mi16 km 10 mi16 km 10 mi16 km 10 mi16 km 10 mi16 km
Hour (EDT)
Weather
Clouds
Temperature
Precip. Type
POP
Dewpoint
Humidity
Wind Direction
Wind Speed
Visibility
POP = Probability of Precipitation. ** Indicates missing data/values from model statistics.

24 Hour Forecast

Today - Partly cloudy early, then partly sunny with a chance of showers with a slight chance of thunderstorms this morning. Mostly cloudy with showers likely with a chance of thunderstorms this afternoon. Some thunderstorms May produce gusty winds this afternoon. Highs in the lower 70s. West winds 10 to 15 mph. Gusts up to 25 mph early. Chance of rain 70%.
Tonight - Mostly cloudy. Showers likely with a chance of thunderstorms in the evening, then a slight chance of showers after midnight. Some thunderstorms May produce gusty winds in the evening. Lows in the mid 50s. North winds 10 to 15 mph with gusts up to 25 mph. Chance of rain 70%.

48 Hour Forecast API Feed


Tue, Sep 28
6:00 am

Tue, Sep 28
7:00 am

Tue, Sep 28
8:00 am

Tue, Sep 28
9:00 am

Tue, Sep 28
10:00 am

Tue, Sep 28
11:00 am

Tue, Sep 28
Noon

Tue, Sep 28
1:00 pm

Tue, Sep 28
2:00 pm

Tue, Sep 28
3:00 pm

Tue, Sep 28
4:00 pm

Tue, Sep 28
5:00 pm

Tue, Sep 28
6:00 pm

Tue, Sep 28
7:00 pm

Tue, Sep 28
8:00 pm

Tue, Sep 28
9:00 pm

Tue, Sep 28
10:00 pm

Tue, Sep 28
11:00 pm

Wed, Sep 29
Midnight

Wed, Sep 29
1:00 am

Wed, Sep 29
2:00 am

Wed, Sep 29
3:00 am

Wed, Sep 29
4:00 am

Wed, Sep 29
5:00 am

Wed, Sep 29
6:00 am

Wed, Sep 29
7:00 am

Wed, Sep 29
8:00 am

Wed, Sep 29
9:00 am

Wed, Sep 29
10:00 am

Wed, Sep 29
11:00 am

Wed, Sep 29
Noon

Wed, Sep 29
1:00 pm

Wed, Sep 29
2:00 pm

Wed, Sep 29
3:00 pm

Wed, Sep 29
4:00 pm

Wed, Sep 29
5:00 pm

Wed, Sep 29
6:00 pm

Wed, Sep 29
7:00 pm

Wed, Sep 29
8:00 pm

Wed, Sep 29
9:00 pm

Wed, Sep 29
10:00 pm

Wed, Sep 29
11:00 pm

Thu, Sep 30
Midnight

Thu, Sep 30
1:00 am

Thu, Sep 30
2:00 am

Thu, Sep 30
3:00 am

Thu, Sep 30
4:00 am

Thu, Sep 30
5:00 am
Partly CloudyPatchy Rain PossibleLight Rain ShowerPartly CloudyPartly CloudyThundery Outbreaks PossiblePartly CloudyCloudyPatchy Rain PossiblePartly CloudyPartly CloudyLight Rain ShowerLight Rain ShowerLight Rain ShowerLight Rain ShowerLight Rain ShowerLight Rain ShowerPatchy Rain PossiblePatchy Rain PossiblePatchy Rain PossiblePatchy Rain PossiblePartly CloudyPartly CloudyPartly CloudyPartly CloudyPartly CloudyCloudyCloudyPartly CloudyPartly CloudyPartly CloudySunnySunnyPartly CloudyPartly CloudyCloudyPartly CloudyPartly CloudyPartly CloudyPartly CloudyPartly CloudyPartly CloudyPartly CloudyPartly CloudyPartly CloudyPartly CloudyPartly CloudyCloudy
Partly cloudy Patchy rain possible Light rain showers Partly cloudy Partly cloudy Thundery outbreaks possible Partly cloudy Cloudy Patchy rain possible Partly cloudy Partly cloudy Light rain showers Light rain showers Light rain showers Light rain showers Light rain showers Light rain showers Patchy rain possible Patchy rain possible Patchy rain possible Patchy rain possible Partly cloudy Partly cloudy Partly cloudy Partly cloudy Partly cloudy Cloudy Cloudy Partly cloudy Partly cloudy Partly cloudy Sunny Sunny Partly cloudy Partly cloudy Cloudy Partly cloudy Partly cloudy Partly cloudy Partly cloudy Partly cloudy Partly cloudy Partly cloudy Partly cloudy Partly cloudy Partly cloudy Partly cloudy Cloudy
68°F
20°C
67°F
19°C
67°F
19°C
67°F
20°C
68°F
20°C
69°F
21°C
71°F
22°C
71°F
22°C
71°F
22°C
71°F
22°C
72°F
22°C
72°F
22°C
70°F
21°C
69°F
21°C
68°F
20°C
67°F
20°C
66°F
19°C
65°F
18°C
64°F
18°C
63°F
17°C
61°F
16°C
60°F
16°C
59°F
15°C
58°F
15°C
57°F
14°C
56°F
13°C
57°F
14°C
58°F
15°C
59°F
15°C
64°F
18°C
65°F
18°C
68°F
20°C
69°F
21°C
66°F
19°C
66°F
19°C
67°F
19°C
66°F
19°C
66°F
19°C
64°F
18°C
64°F
18°C
63°F
17°C
62°F
17°C
61°F
16°C
59°F
15°C
59°F
15°C
58°F
14°C
57°F
14°C
57°F
14°C
60°F
16°C
60°F
16°C
61°F
16°C
61°F
16°C
62°F
17°C
62°F
17°C
62°F
17°C
62°F
17°C
63°F
17°C
63°F
17°C
64°F
18°C
65°F
18°C
65°F
19°C
65°F
18°C
62°F
17°C
60°F
16°C
59°F
15°C
59°F
15°C
58°F
14°C
56°F
13°C
53°F
12°C
50°F
10°C
47°F
8°C
46°F
8°C
47°F
8°C
50°F
10°C
49°F
9°C
48°F
9°C
47°F
8°C
48°F
9°C
45°F
7°C
44°F
7°C
44°F
7°C
42°F
5°C
42°F
6°C
44°F
7°C
45°F
7°C
45°F
7°C
45°F
7°C
46°F
8°C
46°F
8°C
46°F
8°C
47°F
8°C
47°F
8°C
47°F
8°C
46°F
8°C
47°F
8°C
46°F
8°C
29.83 in
1010 mb
29.83 in
1010 mb
29.83 in
1010 mb
29.83 in
1010 mb
29.83 in
1010 mb
29.83 in
1010 mb
29.8 in
1009 mb
29.8 in
1009 mb
29.8 in
1009 mb
29.77 in
1008 mb
29.77 in
1008 mb
29.77 in
1008 mb
29.8 in
1009 mb
29.8 in
1009 mb
29.8 in
1009 mb
29.83 in
1010 mb
29.83 in
1010 mb
29.83 in
1010 mb
29.83 in
1010 mb
29.85 in
1011 mb
29.85 in
1011 mb
29.85 in
1011 mb
29.85 in
1011 mb
29.88 in
1012 mb
29.88 in
1012 mb
29.91 in
1013 mb
29.94 in
1014 mb
29.94 in
1014 mb
29.97 in
1015 mb
29.97 in
1015 mb
29.97 in
1015 mb
29.94 in
1014 mb
29.94 in
1014 mb
29.94 in
1014 mb
29.94 in
1014 mb
29.94 in
1014 mb
29.94 in
1014 mb
29.97 in
1015 mb
29.97 in
1015 mb
29.97 in
1015 mb
30 in
1016 mb
30 in
1016 mb
29.97 in
1015 mb
30 in
1016 mb
30 in
1016 mb
30 in
1016 mb
30 in
1016 mb
30.03 in
1017 mb
76%81%82%81%81%78%75%75%76%76%75%77%84%85%82%77%78%80%80%78%75%69%65%63%70%79%74%69%64%56%48%43%41%41%41%45%47%47%50%52%54%56%59%63%64%66%67%66%
SWWSWSWSWWSWWSWWSWWSWWSWWSWSWWSWWNWNNNNNNNENNNNNNNENNENNENNNNNWNNWNNWNWNWNWNNWNNWNNWNNWNNWNNNNNNWNNW
16 mph
26 km/h
14 mph
22 km/h
12 mph
19 km/h
13 mph
20 km/h
14 mph
22 km/h
13 mph
22 km/h
11 mph
18 km/h
11 mph
18 km/h
12 mph
19 km/h
10 mph
16 km/h
11 mph
18 km/h
11 mph
18 km/h
11 mph
17 km/h
11 mph
17 km/h
11 mph
18 km/h
14 mph
23 km/h
14 mph
23 km/h
15 mph
24 km/h
15 mph
23 km/h
16 mph
25 km/h
17 mph
27 km/h
17 mph
28 km/h
18 mph
29 km/h
17 mph
28 km/h
17 mph
27 km/h
16 mph
26 km/h
16 mph
26 km/h
15 mph
25 km/h
14 mph
23 km/h
13 mph
21 km/h
12 mph
19 km/h
11 mph
17 km/h
10 mph
16 km/h
9 mph
14 km/h
8 mph
12 km/h
10 mph
15 km/h
12 mph
19 km/h
12 mph
20 km/h
13 mph
21 km/h
13 mph
21 km/h
13 mph
21 km/h
12 mph
19 km/h
12 mph
19 km/h
12 mph
19 km/h
12 mph
19 km/h
10 mph
16 km/h
12 mph
19 km/h
12 mph
20 km/h
0%88%79%0%0%70%0%0%66%0%0%92%85%84%60%84%87%69%63%79%72%0%0%0%0%0%0%0%0%0%0%0%0%0%0%0%0%0%0%0%0%0%0%0%0%0%0%0%
6 mi
10 km
6 mi
10 km
6 mi
10 km
6 mi
10 km
6 mi
10 km
6 mi
9 km
6 mi
10 km
6 mi
10 km
6 mi
10 km
6 mi
10 km
6 mi
10 km
6 mi
10 km
6 mi
10 km
6 mi
10 km
6 mi
10 km
6 mi
10 km
6 mi
10 km
6 mi
9 km
6 mi
10 km
6 mi
10 km
6 mi
10 km
6 mi
10 km
6 mi
10 km
6 mi
10 km
6 mi
10 km
6 mi
10 km
6 mi
10 km
6 mi
10 km
6 mi
10 km
6 mi
10 km
6 mi
10 km
6 mi
10 km
6 mi
10 km
6 mi
10 km
6 mi
10 km
6 mi
10 km
6 mi
10 km
6 mi
10 km
6 mi
10 km
6 mi
10 km
6 mi
10 km
6 mi
10 km
6 mi
10 km
6 mi
10 km
6 mi
10 km
6 mi
10 km
6 mi
10 km
6 mi
10 km

Day/Time
Weather
Condition
Temperature
Dew Point
Pressure
Humidity
Wind Direction
Wind Speed
Prob Precip %
Visibility
Prob Precip % = Probability of Precipitation.